Hickory, NC

10:49 PM EDT on June 27, 2017 (GMT -0400)
Hickory Regional

Weather History for KHKY - January, 2015

Change the Weather History Date:

Sunday, January 4, 2015

  Actual Average Record
Temperature  
Mean Temperature 50 °F -  
Max Temperature 57 °F 47 °F 73 °F (1955)
Min Temperature 44 °F 30 °F 12 °F (1981)
Degree Days  
Heating Degree Days 14    
Moisture  
Dew Point 47 °F    
Average Humidity 93    
Maximum Humidity 100    
Minimum Humidity 54    
Precipitation  
Precipitation 0.52 in - - ()
Sea Level Pressure  
Sea Level Pressure 30.03 in    
Wind  
Wind Speed 4 mph (SW)    
Max Wind Speed 15 mph    
Max Gust Speed 28 mph    
Visibility 5 miles    
Events Fog , Rain    
Averages and records for this station are not official NWS values.
T = Trace of Precipitation, MM = Missing Value Source: NWS Daily Summary

Daily Weather History Graph

Daily Weather History Graph

Search for Another Location

Airport or City:

Trip Planner

Search our weather history database for the weather conditions in past years. The results will help you decide how hot, cold, wet, or windy it might be!

Date:

Astronomy

Jan. 04, 2015 Rise Set
Actual Time 7:35 AM EST 5:25 PM EST
Civil Twilight 7:07 AM EST 5:53 PM EST
Nautical Twilight 6:35 AM EST 6:25 PM EST
Astronomical Twilight 6:04 AM EST 6:56 PM EST
Moon 5:22 PM EST (1/4) 6:49 AM EST (1/4)
Length of Visible Light 10h 45m
Length of Day
9h 49m
Full, 100% of the Moon is Illuminated
Jan 4
Full
Jan 4
Full
Jan 13
Last Quarter
Jan 20
New
Jan 26
First Quarter

Hourly Weather History & Observations

Time (EST) Temp. Windchill Dew Point Humidity Pressure Visibility Wind Dir Wind Speed Gust Speed Precip Events Conditions
12:17 AM 45.0 °F - 44.1 °F 97% 30.14 in 4.0 mi Calm Calm - 0.01 in Rain Light Rain
12:37 AM 46.0 °F - 44.1 °F 93% 30.13 in 7.0 mi Calm Calm - 0.01 in   Overcast
12:53 AM 46.0 °F - 44.1 °F 93% 30.10 in 3.0 mi Calm Calm - 0.01 in   Overcast
1:05 AM 46.0 °F - 44.1 °F 93% 30.11 in 3.0 mi Calm Calm - 0.00 in Rain Light Rain
1:25 AM 45.0 °F - 44.1 °F 97% 30.11 in 2.5 mi Calm Calm - 0.01 in Rain Light Rain
1:53 AM 45.0 °F - 44.1 °F 97% 30.07 in 2.5 mi Calm Calm - 0.02 in Rain Light Rain
2:02 AM 45.0 °F 43.5 °F 44.1 °F 97% 30.10 in 4.0 mi WNW 3.5 mph - 0.00 in Rain Light Rain
2:36 AM 45.0 °F - 44.1 °F 97% 30.09 in 2.0 mi Calm Calm - 0.05 in Rain Heavy Rain
2:50 AM 44.6 °F 43.1 °F 44.6 °F 100% 30.08 in 3.0 mi NNW 3.5 mph - 0.09 in Rain Rain
2:53 AM 45.0 °F - 44.1 °F 97% 30.06 in 4.0 mi Calm Calm - 0.09 in Rain Rain
3:20 AM 45.0 °F 41.2 °F 44.1 °F 97% 30.08 in 4.0 mi Variable 6.9 mph - 0.02 in Rain Light Rain
3:37 AM 46.0 °F 44.8 °F 45.0 °F 96% 30.09 in 3.0 mi WNW 3.5 mph - 0.02 in Rain Light Rain
3:53 AM 46.0 °F 44.8 °F 44.1 °F 93% 30.07 in 4.0 mi Variable 3.5 mph - 0.03 in Rain Light Rain
4:10 AM 46.0 °F 44.8 °F 44.1 °F 93% 30.08 in 6.0 mi Variable 3.5 mph - 0.00 in   Overcast
4:20 AM 46.0 °F 44.8 °F 45.0 °F 96% 30.08 in 9.0 mi NNW 3.5 mph - 0.00 in   Overcast
4:35 AM 46.0 °F 42.5 °F 44.1 °F 93% 30.09 in 7.0 mi NNW 6.9 mph - 0.00 in Rain Light Rain
4:53 AM 46.0 °F 43.9 °F 45.0 °F 96% 30.06 in 4.0 mi Variable 4.6 mph - 0.03 in Rain Rain
4:56 AM 46.0 °F 44.8 °F 45.0 °F 96% 30.08 in 2.5 mi Variable 3.5 mph - 0.02 in Rain Heavy Rain
5:03 AM 46.0 °F - 45.0 °F 96% 30.06 in 2.5 mi Calm Calm - 0.03 in Rain Light Rain
5:06 AM 46.9 °F - 46.0 °F 97% 30.06 in 4.0 mi SSW 3.5 mph - 0.03 in Rain Light Rain
5:53 AM 46.9 °F - 45.0 °F 93% 30.03 in 9.0 mi South 5.8 mph - 0.03 in   Overcast
6:13 AM 46.9 °F - 45.0 °F 93% 30.07 in 9.0 mi SSW 4.6 mph - N/A   Overcast
6:36 AM 46.9 °F - 45.0 °F 93% 30.07 in 7.0 mi West 3.5 mph - 0.00 in Rain Light Rain
6:53 AM 46.9 °F - 46.0 °F 97% 30.06 in 5.0 mi West 5.8 mph - 0.02 in Rain Rain
7:00 AM 46.9 °F - 46.0 °F 97% 30.08 in 5.0 mi Calm Calm - 0.00 in Rain Light Rain
7:53 AM 46.9 °F - 45.0 °F 93% 30.05 in 2.0 mi North 6.9 mph - 0.10 in Rain Rain
8:03 AM 46.9 °F - 46.0 °F 97% 30.07 in 1.8 mi Calm Calm - 0.01 in Rain Light Rain
8:13 AM 46.9 °F - 46.9 °F 100% 30.08 in 2.0 mi Calm Calm - 0.02 in Rain Light Rain
8:27 AM 48.0 °F - 46.9 °F 96% 30.09 in 4.0 mi Calm Calm - 0.03 in Rain Light Rain
8:53 AM 48.0 °F - 46.9 °F 96% 30.07 in 3.0 mi Calm Calm - 0.07 in Rain Light Rain
9:27 AM 48.0 °F - 46.9 °F 96% 30.09 in 2.5 mi Calm Calm - 0.03 in Rain Light Rain
9:34 AM 48.0 °F - 46.9 °F 96% 30.08 in 3.0 mi Calm Calm - 0.04 in Rain Light Rain
9:39 AM 48.0 °F - 46.9 °F 96% 30.08 in 2.5 mi Variable 3.5 mph - 0.04 in Rain Light Rain
9:46 AM 48.0 °F - 46.0 °F 93% 30.08 in 2.0 mi Variable 3.5 mph - 0.05 in Rain Rain
9:53 AM 48.0 °F - 46.0 °F 93% 30.05 in 1.8 mi Calm Calm - 0.06 in Rain Rain
10:07 AM 48.0 °F - 46.9 °F 96% 30.04 in 0.5 mi Variable 6.9 mph - 0.02 in Fog , Rain Rain
10:43 AM 48.9 °F - 48.9 °F 100% 30.04 in 2.0 mi South 4.6 mph - 0.04 in Rain Light Rain
10:53 AM 50.0 °F - 48.0 °F 93% 30.01 in 4.0 mi Calm Calm - 0.04 in Rain Light Rain
11:06 AM 50.0 °F - 48.9 °F 96% 30.04 in 1.8 mi NW 3.5 mph - 0.00 in Rain Light Rain
11:19 AM 51.1 °F - 50.0 °F 96% 30.01 in 3.0 mi South 6.9 mph - 0.00 in Rain Light Rain
11:53 AM 54.0 °F - 53.1 °F 97% 29.99 in 10.0 mi WSW 10.4 mph - 0.00 in   Overcast
12:29 PM 53.1 °F - 53.1 °F 100% 29.98 in 1.8 mi SW 11.5 mph - N/A   Overcast
12:40 PM 53.1 °F - 53.1 °F 100% 29.97 in 0.5 mi SSW 9.2 mph - N/A Fog Fog
12:53 PM 53.1 °F - 53.1 °F 100% 29.94 in 0.5 mi SSW 9.2 mph - N/A Fog Fog
1:00 PM 54.0 °F - 53.1 °F 97% 29.96 in 0.2 mi SSW 8.1 mph - N/A Fog Fog
1:11 PM 54.0 °F - 53.1 °F 97% 29.95 in 0.5 mi SSW 5.8 mph - 0.00 in Fog , Rain Light Rain
1:27 PM 54.0 °F - 53.1 °F 97% 29.94 in 2.0 mi SSW 8.1 mph - 0.01 in Rain Light Rain
1:48 PM 53.6 °F - 53.6 °F 100% 29.94 in 2.0 mi SSW 6.9 mph - 0.01 in Rain Light Rain
1:53 PM 54.0 °F - 54.0 °F 100% 29.90 in 1.5 mi South 5.8 mph - 0.01 in Rain Light Rain
2:00 PM 55.0 °F - 54.0 °F 96% 29.93 in 2.0 mi South 8.1 mph - 0.00 in Rain Light Rain
2:10 PM 55.0 °F - 54.0 °F 96% 29.93 in 5.0 mi SSW 10.4 mph - 0.00 in   Overcast
2:32 PM 55.9 °F - 55.0 °F 97% 29.92 in 2.0 mi SSW 6.9 mph - 0.00 in   Overcast
2:40 PM 55.9 °F - 55.0 °F 97% 29.92 in 3.0 mi South 8.1 mph - 0.01 in Rain Light Rain
2:53 PM 57.0 °F - 55.9 °F 96% 29.88 in 10.0 mi South 10.4 mph - 0.01 in   Mostly Cloudy
3:01 PM 57.0 °F - 55.9 °F 96% 29.91 in 10.0 mi South 12.7 mph 19.6 mph N/A   Partly Cloudy
3:53 PM 57.9 °F - 55.9 °F 93% 29.88 in 10.0 mi SSW 13.8 mph - N/A   Clear
4:53 PM 57.9 °F - 55.0 °F 90% 29.88 in 10.0 mi SSW 13.8 mph - N/A   Clear
5:53 PM 57.9 °F - 53.1 °F 84% 29.90 in 10.0 mi SSW 15.0 mph 24.2 mph N/A   Clear
6:53 PM 57.0 °F - 53.1 °F 87% 29.96 in 10.0 mi West 10.4 mph - N/A   Mostly Cloudy
7:53 PM 54.0 °F - 42.1 °F 64% 30.01 in 10.0 mi NW 10.4 mph 16.1 mph N/A   Clear
8:53 PM 50.0 °F - 34.0 °F 54% 30.05 in 10.0 mi West 9.2 mph 18.4 mph N/A   Clear
9:53 PM 48.9 °F - 33.1 °F 54% 30.08 in 10.0 mi NNW 10.4 mph 20.7 mph N/A   Clear
10:53 PM 46.9 °F - 30.9 °F 54% 30.11 in 10.0 mi NW 13.8 mph 27.6 mph N/A   Clear
11:53 PM 46.0 °F 43.9 °F 30.9 °F 56% 30.13 in 10.0 mi Variable 4.6 mph 16.1 mph N/A   Clear